Baudette, MN

6:12 PM CDT on April 25, 2017 (GMT -0500)
Baudette International

Weather History for KBDE - February, 2013

Change the Weather History Date:

Friday, February 15, 2013

  Actual Average Record
Temperature  
Mean Temperature 2 °F -  
Max Temperature 12 °F 19 °F 47 °F (1981)
Min Temperature -8 °F -5 °F -45 °F (1939)
Degree Days  
Heating Degree Days 63    
Moisture  
Dew Point -1 °F    
Average Humidity 79    
Maximum Humidity 88    
Minimum Humidity 67    
Precipitation  
Precipitation 0.00 in - - ()
Sea Level Pressure  
Sea Level Pressure 30.28 in    
Wind  
Wind Speed 6 mph (NW)    
Max Wind Speed 12 mph    
Max Gust Speed -    
Visibility 7 miles    
Events Snow    
Averages and records for this station are not official NWS values.
T = Trace of Precipitation, MM = Missing Value Source: NWS Daily Summary

Daily Weather History Graph

Daily Weather History Graph

Search for Another Location

Airport or City:

Trip Planner

Search our weather history database for the weather conditions in past years. The results will help you decide how hot, cold, wet, or windy it might be!

Date:

Astronomy

Feb. 15, 2013 Rise Set
Actual Time 7:25 AM CST 5:40 PM CST
Civil Twilight 6:53 AM CST 6:12 PM CST
Nautical Twilight 6:16 AM CST 6:49 PM CST
Astronomical Twilight 5:40 AM CST 7:25 PM CST
Moon 9:29 AM CST (2/15) No Moon Set
Length of Visible Light 11h 19m
Length of Day
10h 14m
Waxing Crescent, 30% of the Moon is Illuminated
Feb 15
Waxing Crescent
Feb 17
First Quarter
Feb 25
Full
Mar 4
Last Quarter
Mar 11
New

Hourly Weather History & Observations

Time (CST) Temp. Windchill Dew Point Humidity Pressure Visibility Wind Dir Wind Speed Gust Speed Precip Events Conditions
12:53 AM -0.0 °F -11.6 °F -2.9 °F 88% 30.26 in 10.0 mi WNW 5.8 mph - N/A   Clear
1:53 AM -0.0 °F -11.6 °F -4.0 °F 83% 30.27 in 10.0 mi WNW 5.8 mph - N/A   Clear
2:53 AM -2.0 °F -15.4 °F -6.0 °F 83% 30.28 in 10.0 mi NW 6.9 mph - N/A   Clear
3:53 AM -5.1 °F -19.1 °F -9.0 °F 83% 30.29 in 10.0 mi NW 6.9 mph - N/A   Clear
4:53 AM -5.1 °F -13.6 °F -9.0 °F 83% 30.30 in 10.0 mi West 3.5 mph - N/A   Clear
5:53 AM -6.0 °F -14.7 °F -9.9 °F 83% 30.32 in 10.0 mi WNW 3.5 mph - N/A   Clear
6:53 AM -8.0 °F -16.9 °F -11.9 °F 83% 30.33 in 10.0 mi WNW 3.5 mph - N/A   Scattered Clouds
7:53 AM -7.1 °F -18.1 °F -11.0 °F 83% 30.34 in 10.0 mi WNW 4.6 mph - N/A   Overcast
8:53 AM -4.0 °F -14.6 °F -8.0 °F 83% 30.36 in 7.0 mi WNW 4.6 mph - N/A   Overcast
9:31 AM -2.2 °F - -5.8 °F 85% 30.26 in 2.5 mi Calm Calm - 0.00 in Snow Light Snow
9:53 AM -0.9 °F -8.9 °F -5.1 °F 83% 30.37 in 2.0 mi Variable 3.5 mph - 0.00 in Snow Light Snow
10:08 AM -0.4 °F -15.7 °F -5.8 °F 78% 30.27 in 3.0 mi NW 9.2 mph - 0.00 in Snow Light Snow
10:18 AM 1.4 °F -8.3 °F -4.0 °F 78% 30.27 in 2.5 mi Variable 4.6 mph - 0.00 in Snow Light Snow
10:45 AM 1.4 °F -8.3 °F -2.2 °F 85% 30.27 in 1.5 mi WNW 4.6 mph - 0.00 in Snow Light Snow
10:53 AM 1.9 °F -5.6 °F -2.0 °F 83% 30.37 in 1.8 mi WNW 3.5 mph - 0.00 in Snow Light Snow
11:03 AM 1.4 °F -8.3 °F -2.2 °F 85% 30.27 in 2.0 mi Variable 4.6 mph - 0.00 in Snow Light Snow
11:15 AM 3.2 °F -6.2 °F -2.2 °F 78% 30.27 in 1.8 mi WNW 4.6 mph - 0.00 in Snow Light Snow
11:23 AM 3.2 °F -6.2 °F -0.4 °F 85% 30.27 in 2.5 mi WNW 4.6 mph - 0.00 in Snow Light Snow
11:53 AM 5.0 °F -8.1 °F -0.9 °F 76% 30.37 in 2.5 mi WNW 8.1 mph - 0.00 in Snow Light Snow
12:07 PM 6.8 °F -4.8 °F -0.4 °F 72% 30.26 in 4.0 mi NW 6.9 mph - 0.00 in   Haze
12:53 PM 8.1 °F 1.4 °F 1.0 °F 73% 30.34 in 10.0 mi Variable 3.5 mph - 0.00 in   Overcast
1:53 PM 10.0 °F 1.8 °F 1.0 °F 67% 30.32 in 6.0 mi WNW 4.6 mph - N/A   Haze
2:53 PM 10.0 °F -2.9 °F 1.9 °F 70% 30.31 in 10.0 mi NW 9.2 mph - N/A   Overcast
3:53 PM 10.9 °F 1.4 °F 3.9 °F 73% 30.31 in 7.0 mi NW 5.8 mph - N/A   Overcast
4:53 PM 12.0 °F 4.1 °F 5.0 °F 73% 30.30 in 4.0 mi WNW 4.6 mph - 0.00 in   Haze
5:27 PM 12.2 °F 1.7 °F 6.8 °F 79% 30.21 in 2.5 mi WNW 6.9 mph - 0.00 in Snow Light Snow
5:36 PM 12.2 °F 0.7 °F 6.8 °F 79% 30.20 in 1.5 mi NW 8.1 mph - 0.00 in Snow Light Snow
5:49 PM 10.4 °F -4.1 °F 6.8 °F 85% 30.20 in 3.0 mi NW 11.5 mph - 0.00 in Snow Light Snow
5:50 PM 10.9 °F -3.4 °F 5.0 °F 77% 30.30 in 3.0 mi NW 11.5 mph - 0.00 in Snow Light Snow
6:30 PM 10.4 °F -3.3 °F 5.0 °F 79% 30.20 in 10.0 mi NW 10.4 mph - 0.00 in   Overcast
6:53 PM 10.9 °F -3.4 °F 3.9 °F 73% 30.29 in 10.0 mi NNW 11.5 mph - 0.00 in   Overcast
7:33 PM 10.4 °F -2.4 °F 3.2 °F 73% 30.19 in 10.0 mi NW 9.2 mph - N/A   Overcast
7:53 PM 10.0 °F -2.9 °F 3.0 °F 73% 30.29 in 10.0 mi NW 9.2 mph - N/A   Overcast
8:53 PM 9.0 °F -2.2 °F 3.0 °F 77% 30.29 in 10.0 mi NNW 6.9 mph - N/A   Overcast
9:53 PM 8.1 °F -2.0 °F -0.0 °F 70% 30.28 in 10.0 mi NNW 5.8 mph - N/A   Overcast
10:53 PM 7.0 °F 0.1 °F -0.0 °F 73% 30.27 in 10.0 mi North 3.5 mph - N/A   Overcast
11:22 PM 6.8 °F - -0.4 °F 72% 30.17 in 10.0 mi Calm Calm - N/A   Scattered Clouds
11:53 PM 1.9 °F - -2.9 °F 80% 30.27 in 10.0 mi Calm Calm - N/A   Clear